, AK

(GMT )
Kotzebue

Weather History for PAOT - April, 2013

Change the Weather History Date:

Tuesday, April 9, 2013

  Actual Average Record
Temperature  
Mean Temperature 1 °F 9 °F  
Max Temperature 10 °F 17 °F 41 °F (1997)
Min Temperature -8 °F 0 °F -24 °F (1984)
Degree Days  
Heating Degree Days 64 56  
Month to date heating degree days 529 528  
Since 1 July heating degree days 12772 12755  
Cooling Degree Days 0 0  
Month to date cooling degree days 0 0  
Year to date cooling degree days 0 0  
Moisture  
Dew Point -7 °F    
Average Humidity 0    
Maximum Humidity 0    
Minimum Humidity 0    
Precipitation  
Precipitation T in 0.02 in 0.36 in (1972)
Month to date precipitation T 0.14  
Year to date precipitation 2.43 1.86  
Snow  
Snow T in 0.10 in 4.60 in (1972)
Month to date snowfall T 1.6  
Since 1 July snowfall 28.0 55.1  
Snow Depth 5.00 in    
Sea Level Pressure  
Sea Level Pressure 29.57 in    
Wind  
Wind Speed 16 mph (North)    
Max Wind Speed 30 mph    
Max Gust Speed 37 mph    
Visibility 9 miles    
Events Snow    
T = Trace of Precipitation, MM = Missing Value Source: NWS Daily Summary

Daily Weather History Graph

Daily Weather History Graph

Search for Another Location

Airport or City:

Trip Planner

Search our weather history database for the weather conditions in past years. The results will help you decide how hot, cold, wet, or windy it might be!

Date:

Astronomy

Apr. 09, 2013 Rise Set
Actual Time 7:27 AM AKDT 10:17 PM AKDT
Civil Twilight 6:27 AM AKDT 11:19 PM AKDT
Nautical Twilight 4:57 AM AKDT 12:51 AM AKDT
Astronomical Twilight Sun does not set Sun does not set
Moon 7:05 AM AKDT (4/9) 10:14 PM AKDT (4/9)
Length of Visible Light 16h 51m
Length of Day
14h 50m
Waning Crescent, 0% of the Moon is Illuminated
Apr 9
Waning Crescent
Apr 10
New
Apr 18
First Quarter
Apr 25
Full
May 2
Last Quarter

Hourly Weather History & Observations

Time (AKDT) Temp. Windchill Dew Point Humidity Pressure Visibility Wind Dir Wind Speed Gust Speed Precip Events Conditions
12:53 AM -2.0 °F -13.9 °F -9.0 °F 72% 29.84 in 10.0 mi North 5.8 mph - N/A   Overcast
1:53 AM -2.0 °F -20.5 °F -9.9 °F 69% 29.81 in 10.0 mi NNW 12.7 mph - N/A   Overcast
2:53 AM -4.0 °F -17.8 °F -11.9 °F 69% 29.79 in 10.0 mi Variable 6.9 mph - N/A   Clear
3:53 AM -6.0 °F -24.6 °F -13.0 °F 72% 29.75 in 10.0 mi North 11.5 mph - N/A   Clear
4:53 AM -7.1 °F -26.8 °F -14.1 °F 72% 29.72 in 10.0 mi North 12.7 mph - N/A   Clear
5:53 AM -7.1 °F -29.1 °F -15.0 °F 68% 29.70 in 10.0 mi NNW 16.1 mph 21.9 mph N/A   Clear
6:53 AM -7.1 °F -29.8 °F -15.0 °F 68% 29.67 in 10.0 mi North 17.3 mph - N/A   Clear
7:53 AM -8.0 °F -30.3 °F -16.1 °F 68% 29.64 in 10.0 mi North 16.1 mph - N/A   Clear
8:53 AM -6.0 °F -26.3 °F -14.1 °F 68% 29.62 in 10.0 mi North 13.8 mph - N/A   Clear
9:53 AM -4.0 °F -25.2 °F -13.0 °F 65% 29.59 in 10.0 mi North 16.1 mph - N/A   Clear
10:53 AM -0.9 °F -20.6 °F -11.0 °F 62% 29.56 in 10.0 mi North 15.0 mph - N/A   Clear
11:53 AM 1.0 °F -19.3 °F -8.0 °F 66% 29.54 in 10.0 mi North 17.3 mph - N/A   Clear
12:53 PM 3.9 °F -16.6 °F -6.0 °F 64% 29.51 in 10.0 mi North 19.6 mph - N/A   Clear
1:53 PM 6.1 °F -14.3 °F -4.0 °F 63% 29.49 in 10.0 mi North 20.7 mph - N/A   Clear
2:53 PM 7.0 °F -12.6 °F -2.0 °F 67% 29.47 in 10.0 mi North 19.6 mph - N/A   Clear
3:53 PM 8.1 °F -10.2 °F -0.9 °F 67% 29.46 in 10.0 mi North 17.3 mph - N/A   Clear
4:53 PM 10.0 °F -8.6 °F -0.9 °F 61% 29.44 in 10.0 mi North 19.6 mph 25.3 mph N/A   Scattered Clouds
5:53 PM 9.0 °F -12.2 °F -0.0 °F 67% 29.43 in 10.0 mi North 25.3 mph 35.7 mph N/A   Partly Cloudy
6:53 PM 8.1 °F -13.0 °F -0.9 °F 67% 29.43 in 10.0 mi North 24.2 mph 33.4 mph N/A   Mostly Cloudy
7:53 PM 7.0 °F -13.6 °F -0.9 °F 70% 29.44 in 10.0 mi North 21.9 mph 29.9 mph N/A   Partly Cloudy
8:53 PM 7.0 °F -11.6 °F -2.0 °F 67% 29.45 in 10.0 mi North 17.3 mph - N/A   Overcast
9:53 PM 5.0 °F -13.6 °F -0.0 °F 80% 29.46 in 1.0 mi North 16.1 mph - 0.00 in Snow Light Snow
10:38 PM 3.2 °F -6.2 °F -0.4 °F 85% 29.47 in 4.0 mi NNE 4.6 mph - 0.00 in Snow Light Snow
10:53 PM 3.9 °F -9.4 °F -0.9 °F 80% 29.47 in 3.0 mi North 8.1 mph - 0.00 in Snow Light Snow
11:21 PM 3.2 °F -11.3 °F -0.4 °F 85% 29.47 in 4.0 mi NNE 9.2 mph - 0.00 in Snow Light Snow
11:53 PM 3.0 °F -8.0 °F -2.0 °F 80% 29.49 in 6.0 mi Variable 5.8 mph - 0.00 in Snow Light Snow